[TLELIST] Archives

 

[list_settings.list_name] Current TLEs

July 11th 2008 PDT

HST 1 20580U 90037B 08191.36137517 +.00000236 +00000-0 +53950-5 0 01851 2 20580 028.4681 178.5942 0003626 255.4161 104.6027 15.00391268798316 ISS (ZARYA) 1 25544U 98067A 08191.93326389 +.00007500 +00000-0 +53463-4 0 08257 2 25544 051.6412 259.4045 0009157 354.0894 013.8871 15.75003968552111 CXO 1 25867U 99040B 08191.37500000 +.00000099 +00000-0 +10000-3 0 02203 2 25867 063.8703 079.8275 6875446 278.6545 358.8406 00.37804905003713 ____________________________________________________________________ These 2-Line ...Continue Reading

[list_settings.list_name] Current TLEs

July 10th 2008 PDT

HST 1 20580U 90037B 08192.22611560 .00000225 00000-0 45378-5 0 1743 2 20580 028.4680 172.9542 0003582 264.7705 095.2475 15.00391272798448 ISS (ZARYA) 1 25544U 98067A 08192.20458168 .00007415 00000-0 52900-4 0 8260 2 25544 051.6412 258.0086 0009175 355.2928 112.0984 15.75007951552159 CXO 1 25867U 99040B 08191.37500000 +.00000099 +00000-0 +10000-3 0 02203 2 25867 063.8703 079.8275 6875446 278.6545 358.8406 00.37804905003713 ____________________________________________________________________ These 2-Line ...Continue Reading

[list_settings.list_name] Current TLEs

July 9th 2008 PDT

HST 1 20580U 90037B 08190.43011665 .00000230 00000-0 49041-5 0 1730 2 20580 028.4681 184.6672 0003640 245.7261 114.2948 15.00391077798174 ISS (ZARYA) 1 25544U 98067A 08190.49404896 .00006881 00000-0 49461-4 0 8161 2 25544 051.6405 266.8046 0009099 348.8760 133.2829 15.74978370551884 CXO 1 25867U 99040B 08188.75000000 +.00000131 +00000-0 +10000-3 0 02191 2 25867 063.8586 079.8991 6871430 278.6918 001.4144 00.37805788003709 ____________________________________________________________________ These 2-Line ...Continue Reading

[list_settings.list_name] Current TLEs

July 8th 2008 PDT

HST 1 20580U 90037B 08188.43456338 +.00000263 +00000-0 +74716-5 0 01886 2 20580 028.4687 197.6864 0003738 224.6048 135.4240 15.00391151797873 ISS (ZARYA) 1 25544U 98067A 08189.79148384 .00006207 00000-0 45070-4 0 8118 2 25544 051.6409 270.4184 0008974 345.8568 110.1273 15.74964658551775 CXO 1 25867U 99040B 08188.75000000 +.00000131 +00000-0 +10000-3 0 02191 2 25867 063.8586 079.8991 6871430 278.6918 001.4144 00.37805788003709 ____________________________________________________________________ These 2-Line ...Continue Reading

[list_settings.list_name] Current TLEs

July 7th 2008 PDT

HST 1 20580U 90037B 08189.23278502 .00000243 00000-0 58945-5 0 1727 2 20580 028.4684 192.4813 0003711 233.2692 126.7554 15.00391109797996 ISS (ZARYA) 1 25544U 98067A 08188.72005378 .00004834 00000-0 36081-4 0 8054 2 25544 051.6414 275.9279 0009028 342.1775 154.8507 15.74944895551605 CXO 1 25867U 99040B 08188.75000000 +.00000131 +00000-0 +10000-3 0 02191 2 25867 063.8586 079.8991 6871430 278.6918 001.4144 00.37805788003709 ____________________________________________________________________ These 2-Line ...Continue Reading

[list_settings.list_name] Current TLEs

July 6th 2008 PDT

HST 1 20580U 90037B 08186.50552881 +.00000285 +00000-0 +91958-5 0 01760 2 20580 028.4692 210.2688 0003790 204.4307 155.6102 15.00390956797588 ISS (ZARYA) 1 25544U 98067A 08186.87400661 .00006499 00000-0 47055-4 0 7941 2 25544 051.6413 285.4198 0008946 333.6627 129.6621 15.74930425551318 CXO 1 25867U 99040B 08186.04166667 +.00000115 +00000-0 +10000-3 0 02184 2 25867 063.8553 080.0007 6864360 278.7286 352.6724 00.37799603003699 ____________________________________________________________________ These 2-Line ...Continue Reading

[list_settings.list_name] Current TLEs

July 5th 2008 PDT

HST 1 20580U 90037B 08186.23945510 .00000285 00000-0 92029-5 0 1709 2 20580 028.4691 212.0038 0003784 201.5463 158.4964 15.00390886797545 ISS (ZARYA) 1 25544U 98067A 08186.87400661 .00006499 00000-0 47055-4 0 7941 2 25544 051.6413 285.4198 0008946 333.6627 129.6621 15.74930425551318 CXO 1 25867U 99040B 08186.04166667 +.00000115 +00000-0 +10000-3 0 02184 2 25867 063.8553 080.0007 6864360 278.7286 352.6724 00.37799603003699 ____________________________________________________________________ These 2-Line ...Continue Reading

[list_settings.list_name] Current TLEs

July 4th 2008 PDT

HST 1 20580U 90037B 08186.23945510 .00000285 00000-0 92029-5 0 1709 2 20580 028.4691 212.0038 0003784 201.5463 158.4964 15.00390886797545 ISS (ZARYA) 1 25544U 98067A 08185.54252005 .00009588 00000-0 67390-4 0 7857 2 25544 051.6399 292.2653 0008498 328.8724 140.2343 15.74921874551104 CXO 1 25867U 99040B 08186.04166667 +.00000115 +00000-0 +10000-3 0 02184 2 25867 063.8553 080.0007 6864360 278.7286 352.6724 00.37799603003699 ____________________________________________________________________ These 2-Line ...Continue Reading

[list_settings.list_name] Current TLEs

July 3rd 2008 PDT

HST 1 20580U 90037B 08184.50997587 .00000285 00000-0 91690-5 0 1699 2 20580 028.4693 223.2820 0003796 183.6672 176.3889 15.00390484797285 ISS (ZARYA) 1 25544U 98067A 08184.84158799 .00010483 00000-0 73297-4 0 7808 2 25544 051.6415 295.8710 0008737 325.0011 127.3655 15.74911835550994 CXO 1 25867U 99040B 08183.41666667 +.00000157 +00000-0 +10000-3 0 02172 2 25867 063.8482 080.0588 6858166 278.8098 355.2197 00.37796031003687 ____________________________________________________________________ These 2-Line ...Continue Reading

[list_settings.list_name] Current TLEs

July 2nd 2008 PDT

HST 1 20580U 90037B 08182.58094180 +.00000269 +00000-0 +78986-5 0 01811 2 20580 028.4696 235.8704 0003866 165.6244 194.4457 15.00390006796990 ISS (ZARYA) 1 25544U 98067A 08184.12756944 .00011067 00000-0 77175-4 0 7768 2 25544 051.6413 299.5415 0008747 322.0920 039.3120 15.74898395550884 CXO 1 25867U 99040B 08183.41666667 +.00000157 +00000-0 +10000-3 0 02172 2 25867 063.8482 080.0588 6858166 278.8098 355.2197 00.37796031003687 ____________________________________________________________________ These 2-Line ...Continue Reading
  • This mailing list is a public mailing list - anyone may join or leave, at any time.
  • This mailing list is announce-only.

International Space Station (ISS) / Hubble Space Telescope (HST) / Chandra X-Ray Observatory Orbital Data via EMAIL

Privacy Policy:

Private list